Johnstown, PA

4:23 AM EDT on September 27, 2016 (GMT -0400)
Johnstown-Cambria County

Weather History for KJST - May, 2013

Change the Weather History Date:

Wednesday, May 1, 2013

  Actual Average Record
Temperature  
Mean Temperature 54 °F 53 °F  
Max Temperature 64 °F 63 °F 92 °F (1942)
Min Temperature 45 °F 43 °F 30 °F (1963)
Degree Days  
Heating Degree Days 10 13  
Month to date heating degree days 13  
Since 1 July heating degree days 6344  
Cooling Degree Days 0 0  
Month to date cooling degree days 0  
Year to date cooling degree days 5  
Growing Degree Days 4 (Base 50)    
Moisture  
Dew Point 34 °F    
Average Humidity 52    
Maximum Humidity 87    
Minimum Humidity 24    
Precipitation  
Precipitation 0.00 in 0.11 in 1.33 in (1983)
Month to date precipitation 0.11  
Year to date precipitation 12.22  
Sea Level Pressure  
Sea Level Pressure 30.33 in    
Wind  
Wind Speed 9 mph (SE)    
Max Wind Speed 15 mph    
Max Gust Speed 21 mph    
Visibility 10 miles    
Events      
T = Trace of Precipitation, MM = Missing Value Source: NWS Daily Summary

Daily Weather History Graph

Daily Weather History Graph

Search for Another Location

Airport or City:

Trip Planner

Search our weather history database for the weather conditions in past years. The results will help you decide how hot, cold, wet, or windy it might be!

Date:

Astronomy

May. 01, 2013 Rise Set
Actual Time 6:14 AM EDT 8:10 PM EDT
Civil Twilight 5:44 AM EDT 8:40 PM EDT
Nautical Twilight 5:09 AM EDT 9:16 PM EDT
Astronomical Twilight 4:30 AM EDT 9:55 PM EDT
Moon 1:19 AM EDT (5/1) 11:50 AM EDT (5/1)
Length of Visible Light 14h 55m
Length of Day
13h 56m
Waning Gibbous, 59% of the Moon is Illuminated
May 1
Waning Gibbous
May 2
Last Quarter
May 9
New
May 18
First Quarter
May 25
Full

Hourly Weather History & Observations

Time (EDT) Temp. Windchill Dew Point Humidity Pressure Visibility Wind Dir Wind Speed Gust Speed Precip Events Conditions
12:38 AM 50.0 °F - 46.4 °F 87% 30.26 in 10.0 mi SSE 9.2 mph - N/A   Overcast
1:18 AM 50.0 °F - 46.4 °F 87% 30.26 in 10.0 mi SSE 9.2 mph 18.4 mph N/A   Overcast
1:54 AM 50.0 °F - 46.0 °F 86% 30.27 in 10.0 mi SSE 10.4 mph - N/A   Overcast
2:27 AM 48.2 °F - 44.6 °F 87% 30.26 in 10.0 mi SE 9.2 mph - N/A   Mostly Cloudy
2:54 AM 48.0 °F - 44.1 °F 86% 30.27 in 10.0 mi SSE 8.1 mph - N/A   Mostly Cloudy
3:54 AM 48.0 °F - 39.9 °F 74% 30.27 in 10.0 mi SSE 10.4 mph - N/A   Mostly Cloudy
4:44 AM 46.4 °F 42.9 °F 35.6 °F 66% 30.27 in 10.0 mi SSE 6.9 mph - N/A   Scattered Clouds
4:54 AM 46.0 °F 43.1 °F 35.1 °F 66% 30.29 in 10.0 mi SSE 5.8 mph - N/A   Clear
5:54 AM 45.0 °F 42.6 °F 35.1 °F 68% 30.31 in 10.0 mi SE 4.6 mph - N/A   Clear
6:54 AM 46.0 °F 43.9 °F 37.0 °F 71% 30.33 in 10.0 mi SE 4.6 mph - N/A   Clear
7:54 AM 50.0 °F - 39.9 °F 68% 30.35 in 10.0 mi SE 8.1 mph - N/A   Clear
9:54 AM 55.9 °F - 34.0 °F 44% 30.36 in 10.0 mi SSE 10.4 mph - N/A   Clear
10:54 AM 57.9 °F - 28.9 °F 33% 30.36 in 10.0 mi SSE 15.0 mph 20.7 mph N/A   Clear
11:54 AM 60.1 °F - 30.9 °F 33% 30.36 in 10.0 mi SE 9.2 mph 16.1 mph N/A   Clear
12:54 PM 61.0 °F - 33.1 °F 35% 30.35 in 10.0 mi SSE 11.5 mph 16.1 mph N/A   Clear
2:54 PM 64.0 °F - 28.0 °F 26% 30.35 in 10.0 mi SE 8.1 mph 18.4 mph N/A   Clear
3:54 PM 64.9 °F - 28.9 °F 26% 30.34 in 10.0 mi SE 10.4 mph 16.1 mph N/A   Clear
4:54 PM 64.9 °F - 28.9 °F 26% 30.34 in 10.0 mi East 9.2 mph - N/A   Clear
5:54 PM 64.0 °F - 26.1 °F 24% 30.35 in 10.0 mi ESE 10.4 mph 16.1 mph N/A   Clear
6:54 PM 62.1 °F - 27.0 °F 26% 30.36 in 10.0 mi ESE 8.1 mph - N/A   Clear
7:54 PM 60.1 °F - 27.0 °F 28% 30.36 in 10.0 mi ESE 6.9 mph - N/A   Clear
8:54 PM 55.9 °F - 28.0 °F 34% 30.37 in 10.0 mi ESE 5.8 mph - N/A   Clear
9:54 PM 55.0 °F - 30.0 °F 38% 30.37 in 10.0 mi ESE 5.8 mph - N/A   Clear
10:54 PM 54.0 °F - 28.9 °F 38% 30.37 in 10.0 mi ESE 4.6 mph - N/A   Clear
11:54 PM 52.0 °F - 30.0 °F 43% 30.37 in 10.0 mi SE 6.9 mph - N/A   Clear